364  
ASUS42 KILM 232014  
RWRILM  
RWRILM  
REGIONAL HOURLY WEATHER ROUNDUP  
NATIONAL WEATHER SERVICE WILMINGTON NC  
300 PM EST SUN FEB 23 2020  
 
NOTE: "FAIR" INDICATES FEW OR NO CLOUDS BELOW 12,000 FEET WITH NO  
SIGNIFICANT WEATHER AND/OR S TO VISIBILITY
.  
   
..............WFO WILMINGTON COUNTY WARNING AREA............
 
 
   
.....COASTAL NC AND SC COUNTIES...
 
 
 
CITY SKY/WX TMP DP RH WIND PRES REMARKS
 
WILMINGTON FAIR 59 28 30 S7 30.22F  
N MYRTLE BEACH FAIR 54 33 45 S7 30.23F  
MYRTLE BEACH FAIR 53 33 46 SE8 30.24F  
   
.....INLAND NC AND SC COUNTIES....
 
 
 
CITY SKY/WX TMP DP RH WIND PRES REMARKS
 
LUMBERTON NOT AVBL  
ELIZABETHTOWN FAIR 62 25 24 S9 30.20F  
WHITEVILLE NOT AVBL  
FLORENCE FAIR 62 23 22 SW9 30.21F  
DARLINGTON FAIR 60 27 28 SW9 30.20F  
KINGSTREE FAIR 61 25 25 CALM 30.22F  
HARTSVILLE FAIR 61 25 25 S6 30.20F  
BENNETTSVILLE FAIR 61 27 27 SW6 30.20F  
CONWAY FAIR 61 28 29 S7 30.22F  
GEORGETOWN FAIR 59 30 33 E6 30.23F  
MARION NOT AVBL  
   
...................REST OF NORTH CAROLINA...................
 
 
   
........EASTERN NC......
 
 
 
CITY SKY/WX TMP DP RH WIND PRES REMARKS
 
CAPE HATTERAS FAIR 56 29 35 VRB5 30.23F  
JACKSONVILLE FAIR 62 26 25 SW8 30.21F  
MOREHEAD CITY FAIR 56 27 32 SW8 30.23F  
KENANSVILLE NOT AVBL  
NEW BERN FAIR 64 27 24 VRB6 30.21F  
ELIZABETH CITY FAIR 61 29 29 S10 30.19F  
   
........CENTRAL NC......
 
 
 
CITY SKY/WX TMP DP RH WIND PRES REMARKS
 
RALEIGH DURHAM PTSUNNY 63 30 28 SW13 30.17F  
ROCKY MOUNT FAIR 61 30 31 SW8 30.18F  
ROANOKE RAPIDS NOT AVBL  
FAYETTEVILLE FAIR 62 23 22 SW10 30.19F  
HOFFMAN FAIR 61 24 24 W10 30.18F  
   
........WESTERN NC......
 
 
 
CITY SKY/WX TMP DP RH WIND PRES REMARKS
 
CHARLOTTE PTSUNNY 59 25 27 S7 30.18F  
GREENSBORO PTSUNNY 59 28 30 SW12 30.14F  
HICKORY NOT AVBL  
BOONE NOT AVBL  
ASHEVILLE NOT AVBL  
   
....................REST OF SOUTH CAROLINA..................
 
 
   
........EASTERN SC......
 
 
 
CITY SKY/WX TMP DP RH WIND PRES REMARKS
 
CHARLESTON PTSUNNY 63 26 24 SE6 30.21F  
BEAUFORT MCAS FAIR 63 33 32 E6 30.21F  
HILTON HEAD SUNNY 57 34 41 E6 30.23F  
   
........CENTRAL SC......
 
 
 
CITY SKY/WX TMP DP RH WIND PRES REMARKS
 
COLUMBIA PTSUNNY 60 26 27 S3 30.20F  
ORANGEBURG FAIR 60 23 24 S7 30.21F  
SUMTER SHAW NOT AVBL  
   
........WESTERN SC......
 
 
 
CITY SKY/WX TMP DP RH WIND PRES REMARKS
 
GREENVILLE NOT AVBL  
ROCK HILL FAIR 60 24 25 S8 30.18F  
ANDERSON PTSUNNY 60 23 24 W10 30.18S  
CLEMSON NOT AVBL  
GREENWOOD FAIR 59 28 30 S7 30.20F  
 
   
..................COASTAL AND OFFSHORE REPORTS...............
 
 
   
...............LOCAL PIERS AND NC RESERVE.............
 
 
 
STATION/POSITION TIME SKY/WX TEMP WIND PRES VSBY
 
AIR SEA DIR/SP/G  
(UTC) (F) (DEG/KT/KT) (MB) (MI)  
JOHNY MRCER PIER 1930 51 53 150/ 8/ 8 1023.1F  
NC RESRV MASNBRO NOT AVBL  
OCEAN CREST PIER NOT AVBL  
SPRINGMAID PIER 1930 52 N/A  
 
   
...............COASTAL AND OFFSHORE BUOYS.............
 
 
 
STATION/POSITION TIME SKY/WX TEMP WIND PRES VSBY
 
AIR SEA DIR/SP/G  
(UTC) (F) (DEG/KT/KT) (MB) (MI)  
DIMNDSHOAL 41025 2000 56 74 280/ 2/ 6 1023.1  
CAPE LOOKOUT 2000 53 150/ 4/ 5 1023.5F  
ONSLOW BAY 41036 NOT AVBL  
ONSLOW BAY 41064 1908 57 63 170/ 2/ 4 1024.1F  
ONSLOW BAY 41159 2000 64 N/A  
WVE H/P(F/S)= 4/10 SWL H/P/D(F/S/D)= 2/100/11  
 
MASNBO INL 41110 1940 56 N/A  
WVE H/P(F/S)= 3/10 SWL H/P/D(F/S/D)= 2/110/11  
 
WILM HARBR 41108 1930 57 N/A  
WVE H/P(F/S)= 2/12 SWL H/P/D(F/S/D)= 2/130/12  
 
27SE WRITB 41037 1908 55 62 30/ 4/ 6 1022.9F  
FRYING PAN 41013 2000 58 74 20/ 6/ 8 1023.3  
SUNST NRSH 41024 1908 51 55 160/ 6/ 8 1024.9F  
CAPRS NRSH 41029 1908 52 53 70/ 6/ 10 1025.5F  
EDISTO 41004 2000 71 1022.9  
 
   
.........OFFSHORE BUOYS BEYOND 100 NM OFFSHORE........
 
   
....IN A TRIANGLE---HAT TO BERMUDA TO BAHAMAS TO HAT..
 
 
 
 
STATION/POSITION TIME SKY/WX TEMP WIND PRES VSBY
 
AIR SEA DIR/SP/G  
(UTC) (F) (DEG/KT/KT) (MB) (MI)  
150E HAT 41001 NOT AVBL  
W BERMUDA 41048 2000 69 20/ 12/ 16 1022.7  
ATLANTIC S 41049 2000 10/ 21/ 29 1014.7  
E BAHAMAS 41046 2000 73 78 360/ 14/ 19 1016.4  
NE BAHAMAS 41047 2000 73 30/ 14/ 19 1020.9  
120E CANVRL41010 2000 69 80/ 4/ 8 1022.8  
 
END  
 
 
CLICK HERE TO GO TO PREVIOUS BULLETINS.

The Nexlab NC Page
The Nexlab SC Page Main Text Page